CW5404 Weather Reports


Display with metric or nautical units.
time (UTC)temp
F
wind
direction
speed
MPH
gust
MPH
rain 1hr
in
rain 24hr
in
rain mn
in
humidity
%
barometer
mb
20260505121417 48 360 0.0 0.0 0.00 0.00 0.00 99 1014.6
20260505120917 48 360 0.0 0.0 0.00 0.00 0.00 99 1014.6
20260505120416 48 360 0.0 0.0 0.00 0.00 0.00 99 1014.6
20260505115416 48 141 0.0 0.0 0.00 0.00 0.00 99 1014.6
20260505114916 48 141 0.0 0.0 0.00 0.00 0.00 98 1014.6
20260505114416 47 140 0.0 0.0 0.00 0.00 0.00 98 1014.6
20260505113917 47 140 0.0 0.0 0.00 0.00 0.00 98 1014.6
20260505113416 47 140 0.0 0.0 0.00 0.00 0.00 97 1014.6
20260505112916 47 140 0.0 0.0 0.00 0.00 0.00 96 1014.6
20260505112416 47 140 0.0 0.0 0.00 0.00 0.00 96 1014.5
20260505111916 47 360 0.0 0.0 0.00 0.00 0.00 96 1014.5
20260505111416 46 360 0.0 0.0 0.00 0.00 0.00 96 1014.5
20260505101916 46 360 0.0 0.0 0.00 0.00 0.00 94 1013.9
20260505101415 46 360 0.0 0.0 0.00 0.00 0.00 94 1013.9
20260505100415 46 360 0.0 0.0 0.00 0.00 0.00 93 1014.0
20260505095915 46 360 0.0 0.0 0.00 0.00 0.00 93 1014.0
20260505095415 46 360 0.0 0.0 0.00 0.00 0.00 93 1014.0
20260505093415 47 360 0.0 0.0 0.00 0.00 0.00 93 1013.9
20260505092915 47 360 0.0 0.0 0.00 0.00 0.00 93 1013.9
20260505091414 47 360 0.0 0.0 0.00 0.00 0.00 93 1013.8
20260505090915 48 360 0.0 0.0 0.00 0.00 0.00 93 1013.7
20260505090415 48 360 0.0 0.0 0.00 0.00 0.00 93 1013.7
20260505085914 48 360 0.0 0.0 0.00 0.00 0.00 93 1013.7
20260505084915 48 360 0.0 0.0 0.00 0.00 0.00 93 1013.7
20260505083914 48 360 0.0 0.0 0.00 0.00 0.00 92 1013.6
20260505083415 49 360 0.0 0.0 0.00 0.00 0.00 92 1013.6
20260505082914 49 360 0.0 0.0 0.00 0.00 0.00 92 1013.6
20260505082414 49 360 0.0 0.0 0.00 0.00 0.00 92 1013.5
20260505081914 49 360 0.0 0.0 0.00 0.00 0.00 92 1013.5
20260505081414 49 360 0.0 0.0 0.00 0.00 0.00 92 1013.5
20260505080914 50 360 0.0 0.0 0.00 0.00 0.00 92 1013.3
20260505075914 50 360 0.0 0.0 0.00 0.00 0.00 92 1013.3
20260505074914 50 360 0.0 0.0 0.00 0.00 0.00 92 1013.2
20260505074414 50 360 0.0 0.0 0.00 0.00 0.00 92 1013.2
20260505073914 50 360 0.0 0.0 0.00 0.00 0.00 92 1012.9
20260505073414 50 360 0.0 0.0 0.00 0.00 0.00 91 1012.9
20260505072414 50 360 0.0 0.0 0.00 0.00 0.00 90 1012.9
20260505071914 50 141 0.0 0.0 0.00 0.00 0.00 90 1012.9
20260505071414 51 360 0.0 0.0 0.00 0.00 0.00 90 1012.9
20260505070913 51 360 0.0 0.0 0.00 0.00 0.00 90 1012.9
20260505070414 51 360 0.0 0.0 0.00 0.00 0.00 90 1012.9
20260505065914 51 360 0.0 0.0 0.00 0.00 0.00 89 1012.9
20260505064413 51 360 0.0 0.0 0.00 0.00 0.00 89 1012.8
20260505063914 51 360 0.0 0.0 0.00 0.00 0.00 88 1012.7
20260505062913 52 360 0.0 1.0 0.00 0.00 0.00 88 1012.8
20260505062413 52 360 0.0 1.0 0.00 0.00 0.00 88 1012.8
20260505061913 52 360 0.0 0.0 0.00 0.00 0.00 87 1012.7
20260505060913 52 360 0.0 0.0 0.00 0.00 0.00 87 1012.7
20260505060413 52 360 0.0 0.0 0.00 0.00 0.00 87 1012.7
20260505055913 52 360 0.0 0.0 0.00 0.00 0.00 87 1012.7
20260505055413 52 360 0.0 0.0 0.00 0.00 0.00 87 1012.5
20260505054913 52 360 0.0 0.0 0.00 0.00 0.00 87 1012.5
20260505054413 53 360 0.0 0.0 0.00 0.00 0.00 86 1012.6
20260505053913 53 360 0.0 0.0 0.00 0.00 0.00 86 1012.6
20260505053412 53 360 0.0 0.0 0.00 0.00 0.00 86 1012.6
20260505052913 53 360 0.0 0.0 0.00 0.00 0.00 86 1012.6
20260505052412 53 360 0.0 1.0 0.00 0.00 0.00 86 1012.6
20260505051912 54 360 0.0 1.0 0.00 0.00 0.00 86 1012.6
20260505050912 54 360 0.0 2.0 0.00 0.00 0.00 86 1012.4
20260505050413 54 360 0.0 2.0 0.00 0.00 0.00 85 1012.4
20260505041412 57 360 0.0 3.0 0.00 0.00 0.00 82 1011.8
20260505040912 57 360 2.0 3.0 0.00 0.00 0.00 82 1011.4
20260505040412 57 360 0.0 3.0 0.00 0.00 0.00 81 1011.4
20260505035912 58 360 0.0 3.0 0.00 0.00 0.00 81 1011.4
20260505035412 58 360 1.0 3.0 0.00 0.00 0.00 80 1011.1
20260505034912 58 360 3.0 3.0 0.00 0.00 0.00 79 1011.1
20260505034412 59 360 0.0 2.0 0.00 0.00 0.00 79 1011.1
20260505033912 59 360 0.0 2.0 0.00 0.00 0.00 78 1010.9
20260505032912 60 192 0.0 5.0 0.00 0.00 0.00 77 1011.0
20260505032411 61 145 2.0 3.0 0.00 0.00 0.00 76 1010.9
20260505031911 61 80 0.0 3.0 0.00 0.00 0.00 76 1010.9
20260505031411 61 80 2.0 4.0 0.00 0.00 0.00 75 1010.9
20260505030912 62 46 1.0 4.0 0.00 0.00 0.00 75 1010.7
20260505030411 62 52 0.0 3.0 0.00 0.00 0.00 74 1010.7
20260505025912 63 51 0.0 3.0 0.00 0.00 0.00 73 1010.7
20260505025411 63 128 0.0 3.0 0.00 0.00 0.00 72 1010.4
20260505024911 64 91 0.0 3.0 0.00 0.00 0.00 70 1010.4
20260505024411 64 54 0.0 5.0 0.00 0.00 0.00 69 1010.4
20260505023911 64 54 0.0 5.0 0.00 0.00 0.00 69 1010.2
20260505023411 65 148 3.0 4.0 0.00 0.00 0.00 69 1010.2
20260505022911 65 107 0.0 3.0 0.00 0.00 0.00 69 1010.2
20260505022411 66 80 1.0 5.0 0.00 0.00 0.00 68 1010.3
20260505021911 66 121 2.0 5.0 0.00 0.00 0.00 66 1010.3
20260505021411 66 175 1.0 5.0 0.00 0.00 0.00 67 1010.3
20260505020911 67 159 3.0 5.0 0.00 0.00 0.00 67 1010.3
20260505020411 67 143 2.0 5.0 0.00 0.00 0.00 66 1010.3
20260505015911 67 112 2.0 5.0 0.00 0.00 0.00 65 1010.3
20260505015411 67 49 0.0 5.0 0.00 0.00 0.00 66 1010.2
20260505014911 68 130 2.0 5.0 0.00 0.00 0.00 66 1010.2
20260505014411 68 145 1.0 4.0 0.00 0.00 0.00 65 1010.2
20260505013411 69 87 0.0 6.0 0.00 0.00 0.00 63 1010.2
20260505012911 69 94 3.0 6.0 0.00 0.00 0.00 64 1010.2
20260505012411 69 257 0.0 2.0 0.00 0.00 0.00 62 1010.4
20260505011911 69 225 0.0 2.0 0.00 0.00 0.00 63 1010.4
20260505011411 70 222 0.0 2.0 0.00 0.00 0.00 62 1010.4
20260505010911 70 235 1.0 4.0 0.00 0.00 0.00 63 1010.3
20260505010411 70 223 0.0 4.0 0.00 0.00 0.00 63 1010.3
20260505005910 70 202 0.0 2.0 0.00 0.00 0.00 63 1010.3
20260505005410 70 242 0.0 6.0 0.00 0.00 0.00 62 1010.3
20260505004910 70 240 1.0 6.0 0.00 0.00 0.00 62 1010.3
20260505004411 71 209 3.0 6.0 0.00 0.00 0.00 61 1010.3
20260505003910 71 279 1.0 6.0 0.00 0.00 0.00 61 1010.4
20260505002410 72 236 1.0 4.0 0.00 0.00 0.00 61 1010.4
20260505001910 72 182 0.0 4.0 0.00 0.00 0.00 60 1010.4
20260505000413 72 64 1.0 6.0 0.00 0.00 0.00 59 1010.5
20260504235910 72 58 0.0 6.0 0.00 0.00 0.00 59 1010.5
20260504235410 72 217 4.0 6.0 0.00 0.00 0.00 58 1010.5
20260504234910 72 200 2.0 6.0 0.00 0.00 0.00 60 1010.5
20260504234410 72 348 1.0 6.0 0.00 0.00 0.00 60 1010.5
20260504233410 72 258 2.0 7.0 0.00 0.00 0.00 59 1010.8
20260504232410 72 219 3.0 7.0 0.00 0.00 0.00 61 1010.7
20260504231910 73 266 1.0 7.0 0.00 0.00 0.00 60 1010.7
20260504231410 72 233 1.0 7.0 0.00 0.00 0.00 59 1010.7
20260504230910 72 209 2.0 7.0 0.00 0.00 0.00 60 1010.8
20260504230410 72 197 0.0 7.0 0.00 0.00 0.00 60 1010.8
20260504225910 72 224 5.0 8.0 0.00 0.00 0.00 61 1010.8
20260504225410 72 218 4.0 8.0 0.00 0.00 0.00 61 1010.9
20260504224910 72 229 3.0 8.0 0.00 0.00 0.00 59 1010.9
20260504224410 72 201 4.0 8.0 0.00 0.00 0.00 59 1010.9
20260504223909 73 202 8.0 8.0 0.00 0.00 0.00 58 1011.1
20260504223410 73 218 1.0 4.0 0.00 0.00 0.00 60 1011.2
20260504222909 73 182 4.0 4.0 0.00 0.00 0.00 60 1011.2
20260504222410 72 217 0.0 5.0 0.00 0.00 0.00 62 1011.2
20260504221909 73 173 1.0 5.0 0.00 0.00 0.00 57 1011.1
20260504221409 73 227 2.0 4.0 0.00 0.00 0.00 58 1011.1
20260504220909 73 328 1.0 4.0 0.00 0.00 0.00 58 1011.4
20260504220409 73 272 1.0 5.0 0.00 0.00 0.00 59 1011.4
20260504215909 72 65 1.0 5.0 0.00 0.00 0.00 64 1011.5
20260504215409 71 165 2.0 5.0 0.00 0.00 0.00 60 1011.5
20260504214909 71 198 4.0 5.0 0.00 0.00 0.00 61 1011.5
20260504214409 71 212 4.0 7.0 0.00 0.00 0.00 63 1011.5
20260504213909 71 212 5.0 7.0 0.00 0.00 0.00 64 1011.6
20260504213409 71 172 0.0 6.0 0.00 0.00 0.00 62 1011.6
20260504212409 70 214 3.0 7.0 0.00 0.00 0.00 64 1011.8
20260504211909 70 183 3.0 7.0 0.00 0.00 0.00 63 1011.8
20260504211409 70 178 4.0 7.0 0.00 0.00 0.00 63 1011.8
20260504205909 70 169 5.0 7.0 0.00 0.00 0.00 62 1012.0
20260504205409 70 122 2.0 6.0 0.00 0.00 0.00 68 1012.3
20260504204909 69 96 5.0 8.0 0.00 0.00 0.00 65 1012.2
20260504204409 68 99 3.0 8.0 0.00 0.00 0.00 66 1012.2
20260504203909 68 157 3.0 10.0 0.00 0.00 0.00 67 1012.3
20260504203408 67 103 1.0 10.0 0.00 0.00 0.00 66 1012.3
20260504202908 67 87 5.0 11.0 0.00 0.00 0.00 67 1012.3
20260504202409 68 109 7.0 11.0 0.00 0.00 0.00 68 1012.3
20260504201908 68 44 2.0 8.0 0.00 0.00 0.00 67 1012.3
20260504201409 68 132 4.0 7.0 0.00 0.00 0.00 67 1012.3
20260504200909 67 132 4.0 7.0 0.00 0.00 0.00 69 1012.4
20260504200409 67 175 3.0 7.0 0.00 0.00 0.00 69 1012.4
20260504195408 66 186 2.0 8.0 0.00 0.00 0.00 69 1012.5
20260504194908 66 119 3.0 8.0 0.00 0.00 0.00 69 1012.5
20260504194408 66 150 1.0 8.0 0.00 0.00 0.00 68 1012.5
20260504193908 66 107 3.0 9.0 0.00 0.00 0.00 70 1012.5
20260504193408 66 157 6.0 9.0 0.00 0.00 0.00 69 1012.5
20260504192908 66 196 2.0 6.0 0.00 0.00 0.00 69 1012.5
20260504192408 66 187 4.0 7.0 0.00 0.00 0.00 70 1012.5
20260504191408 66 132 7.0 8.0 0.00 0.00 0.00 71 1012.5
20260504190908 66 168 3.0 8.0 0.00 0.00 0.00 70 1012.7
20260504190408 65 160 2.0 6.0 0.00 0.00 0.00 69 1012.7
20260504172928 61 0.0 2.0 0.00 0.00 0.00 77 1012.9
20260504172429 61 1.0 2.0 0.00 0.00 0.00 78 1013.1
20260504171928 60 0.0 2.0 0.00 0.00 0.00 80 1013.1
20260504171428 60 0.0 0.0 0.00 0.00 0.00 81 1013.1
20260504170429 59 0.0 4.0 0.00 0.00 0.00 81 1013.0
20260504160428 56 0.0 0.0 0.00 0.00 0.00 87 1013.1
20260504130425 49 0.0 0.0 0.00 0.00 0.00 93 1011.1